#timestamp,LO_Frequency,Hit,Temp,Hum 
1479117615.3,286046976.9,N,0.0,0.0
1479117635.2,286046976.8,N,0.0,0.0
1479117655.9,286046974.7,N,0.0,0.0
1479117675.7,286046975.1,N,0.0,0.0
1479117695.6,286046975.3,N,0.0,0.0
1479117715.4,286046974.4,N,0.0,0.0
1479117735.2,286046975.4,N,0.0,0.0
1479117755.1,286046975.4,N,0.0,0.0
1479117756.0,286046975.4,N,0.0,0.0
1479117775.8,286046975.3,N,0.0,0.0
1479117795.7,286046971.3,N,0.0,0.0
1479117815.5,286046974.4,N,0.0,0.0
1479117835.3,286046975.2,N,0.0,0.0
1479117855.2,286046974.7,N,0.0,0.0
1479117875.0,286046977.4,N,0.0,0.0
1479117875.9,286046977.4,N,0.0,0.0
1479117895.7,286046976.8,N,0.0,0.0
1479117915.6,286046973.1,N,0.0,0.0
1479117935.4,286046974.9,N,0.0,0.0
1479117955.3,286046972.6,N,0.0,0.0
1479117975.1,286046972.5,N,0.0,0.0
1479117976.0,286046972.5,N,0.0,0.0
1479117995.8,286046973.3,N,0.0,0.0
1479118015.7,286046975.0,N,0.0,0.0
1479118035.5,286046971.9,N,0.0,0.0
1479118055.3,286046973.6,N,0.0,0.0
1479118075.2,286046967.7,N,0.0,0.0
1479118095.0,286046972.5,N,0.0,0.0
1479118095.9,286046972.5,N,0.0,0.0
1479118115.8,286046973.4,N,0.0,0.0
1479118135.6,286046973.8,N,0.0,0.0
1479118155.4,286046971.1,N,0.0,0.0
1479118175.3,286046971.0,N,0.0,0.0
1479118195.1,286046971.4,N,0.0,0.0
1479118215.8,286046972.4,N,0.0,0.0
1479118235.7,286046971.7,N,0.0,0.0
1479118255.5,286046972.2,N,0.0,0.0
1479118275.4,286046969.4,N,0.0,0.0
1479118295.2,286046972.1,N,0.0,0.0
1479118315.0,286046973.8,N,0.0,0.0
1479118315.9,286046973.8,N,0.0,0.0
1479118335.8,286046971.5,N,0.0,0.0
1479118355.6,286046971.8,N,0.0,0.0
1479118375.4,286046972.1,N,0.0,0.0
1479118395.3,286046971.9,N,0.0,0.0
1479118415.1,286046971.7,N,0.0,0.0
1479118435.9,286046969.5,N,0.0,0.0
1479118455.7,286046970.4,N,0.0,0.0
1479118475.5,286046970.1,N,0.0,0.0
1479118495.4,286046969.4,N,0.0,0.0
1479118515.2,286046970.2,N,0.0,0.0
1479118535.0,286046969.4,N,0.0,0.0
1479118535.9,286046969.4,N,0.0,0.0
1479118555.8,286046972.3,N,0.0,0.0
1479118575.6,286046972.4,N,0.0,0.0
1479118595.5,286046969.4,N,0.0,0.0
1479118615.3,286046970.6,N,0.0,0.0
1479118635.1,286046970.8,N,0.0,0.0
1479118655.9,286046968.2,N,0.0,0.0
1479118675.7,286046968.1,N,0.0,0.0
1479118695.5,286046968.5,N,0.0,0.0
1479118715.4,286046968.8,N,0.0,0.0
1479118735.2,286046966.6,N,0.0,0.0
1479118755.0,286046966.6,N,0.0,0.0
1479118756.0,286046966.6,N,0.0,0.0
1479118775.8,286046966.7,N,0.0,0.0
1479118795.6,286046966.4,N,0.0,0.0
1479118815.5,286046964.9,N,0.0,0.0
1479118835.3,286046967.6,N,0.0,0.0
1479118855.1,286046968.5,N,0.0,0.0
1479118875.9,286046969.2,N,0.0,0.0
1479118895.7,286046969.0,N,0.0,0.0
1479118915.5,286046966.7,N,0.0,0.0
1479118935.4,286046966.8,N,0.0,0.0
1479118955.2,286046964.5,N,0.0,0.0
1479118975.1,286046965.8,N,0.0,0.0
1479118976.0,286046965.8,N,0.0,0.0
1479118995.8,286046965.9,N,0.0,0.0
1479119015.6,286046963.4,N,0.0,0.0
1479119035.5,286046963.9,N,0.0,0.0
1479119055.3,286046963.9,N,0.0,0.0
1479119075.2,286046961.8,N,0.0,0.0
1479119095.9,286046963.4,N,0.0,0.0
1479119115.7,286046963.6,N,0.0,0.0
1479119135.6,286046963.0,N,0.0,0.0
1479119155.4,286046963.1,N,0.0,0.0
1479119175.2,286046965.1,N,0.0,0.0
1479119195.1,286046965.5,N,0.0,0.0
1479119196.0,286046965.5,N,0.0,0.0
1479119215.8,286046964.4,N,0.0,0.0
1479119235.7,286046963.5,N,0.0,0.0
1479119255.5,286046963.8,N,0.0,0.0
1479119275.3,286046962.7,N,0.0,0.0
1479119295.2,286046963.5,N,0.0,0.0
1479119315.9,286046964.2,N,0.0,0.0
1479119335.7,286046963.9,N,0.0,0.0
1479119355.6,286046963.1,N,0.0,0.0
1479119375.4,286046963.4,N,0.0,0.0
1479119395.2,286046963.6,N,0.0,0.0
1479119415.1,286046963.4,N,0.0,0.0
1479119416.0,286046963.4,N,0.0,0.0
1479119435.8,286046964.4,N,0.0,0.0
1479119455.7,286046964.3,N,0.0,0.0
1479119475.5,286046962.3,N,0.0,0.0
1479119495.3,286046961.9,N,0.0,0.0
1479119515.2,286046961.8,N,0.0,0.0
1479119535.0,286046961.6,N,0.0,0.0
1479119535.9,286046961.6,N,0.0,0.0
1479119555.7,286046964.3,N,0.0,0.0
1479119575.6,286046963.2,N,0.0,0.0
1479119595.4,286046963.4,N,0.0,0.0
1479119615.3,286046963.4,N,0.0,0.0
1479119635.1,286046964.3,N,0.0,0.0
1479119636.0,286046964.3,N,0.0,0.0
1479119655.8,286046964.2,N,0.0,0.0
1479119675.7,286046961.7,N,0.0,0.0
1479119695.5,286046962.1,N,0.0,0.0
1479119715.3,286046962.8,N,0.0,0.0
1479119735.2,286046956.5,N,0.0,0.0
1479119755.0,286046962.9,N,0.0,0.0
1479119755.9,286046962.9,N,0.0,0.0
1479119775.8,286046960.5,N,0.0,0.0
1479119795.6,286046956.5,N,0.0,0.0
1479119815.4,286046958.7,N,0.0,0.0
1479119835.3,286046959.7,N,0.0,0.0
1479119855.1,286046959.7,N,0.0,0.0
1479119875.8,286046960.0,N,0.0,0.0
1479119895.7,286046960.9,N,0.0,0.0
1479119915.5,286046958.2,N,0.0,0.0
1479119935.4,286046960.8,N,0.0,0.0
1479119955.2,286046959.3,N,0.0,0.0
1479119975.0,286046959.2,N,0.0,0.0
1479119975.9,286046959.2,N,0.0,0.0
1479119995.8,286046959.3,N,0.0,0.0
1479120015.6,286046958.1,N,0.0,0.0
1479120035.4,286046961.0,N,0.0,0.0
1479120055.3,286046960.5,N,0.0,0.0
1479120075.1,286046960.8,N,0.0,0.0
1479120095.9,286046958.7,N,0.0,0.0
1479120115.7,286046960.5,N,0.0,0.0
1479120135.5,286046960.3,N,0.0,0.0
1479120155.4,286046962.7,N,0.0,0.0
1479120175.2,286046959.9,N,0.0,0.0
1479120195.0,286046958.8,N,0.0,0.0
1479120195.9,286046958.8,N,0.0,0.0
1479120215.8,286046957.4,N,0.0,0.0
1479120235.6,286046954.9,N,0.0,0.0
1479120255.5,286046957.9,N,0.0,0.0
1479120275.3,286046957.2,N,0.0,0.0
1479120295.1,286046956.6,N,0.0,0.0
1479120315.9,286046959.0,N,0.0,0.0
1479120335.7,286046959.4,N,0.0,0.0
1479120355.5,286046957.0,N,0.0,0.0
1479120375.4,286046957.0,N,0.0,0.0
1479120395.2,286046956.9,N,0.0,0.0
1479120415.0,286046957.5,N,0.0,0.0
1479120416.0,286046957.5,N,0.0,0.0
1479120435.8,286046954.9,N,0.0,0.0
1479120455.6,286046955.2,N,0.0,0.0
1479120475.5,286046955.5,N,0.0,0.0
1479120495.3,286046955.7,N,0.0,0.0
1479120515.1,286046955.2,N,0.0,0.0
1479120535.9,286046955.6,N,0.0,0.0
1479120555.7,286046956.2,N,0.0,0.0
1479120575.5,286046957.0,N,0.0,0.0
1479120595.4,286046954.9,Y,0.0,0.0
1479120615.2,286046981.6,N,0.0,0.0
1479120635.1,286046979.8,N,0.0,0.0
1479120636.0,286046979.8,N,0.0,0.0
1479120655.8,286046979.6,N,0.0,0.0
1479120675.6,286046980.0,N,0.0,0.0
1479120695.5,286046979.1,N,0.0,0.0
1479120715.3,286046981.4,N,0.0,0.0
1479120735.2,286046980.6,N,0.0,0.0
1479120755.9,286046980.6,N,0.0,0.0
1479120775.7,286046979.0,N,0.0,0.0
1479120795.6,286046977.7,N,0.0,0.0
1479120815.4,286046979.8,N,0.0,0.0
1479120835.2,286046977.6,N,0.0,0.0
1479120855.1,286046977.7,N,0.0,0.0
1479120856.0,286046977.7,N,0.0,0.0
1479120875.8,286046976.1,N,0.0,0.0
1479120895.6,286046972.9,N,0.0,0.0
1479120915.5,286046979.8,N,0.0,0.0
1479120935.3,286046979.8,N,0.0,0.0
1479120955.2,286046979.6,N,0.0,0.0
1479120975.9,286046980.0,N,0.0,0.0
1479120995.7,286046979.7,N,0.0,0.0
1479121015.6,286046980.1,N,0.0,0.0
1479121035.4,286046979.1,N,0.0,0.0
1479121055.2,286046980.1,N,0.0,0.0
1479121075.1,286046977.3,N,0.0,0.0
1479121076.0,286046977.3,N,0.0,0.0
1479121095.8,286046978.2,N,0.0,0.0
1479121115.7,286046976.6,N,0.0,0.0
1479121135.5,286046977.2,N,0.0,0.0
1479121155.3,286046979.1,N,0.0,0.0
1479121175.2,286046982.1,N,0.0,0.0
1479121195.0,286046979.8,N,0.0,0.0
1479121195.9,286046979.8,N,0.0,0.0
